EW0466 Weather Reports


time (UTC)temp
C
wind
direction
speed
KPH
gust
KPH
rain 1hr
cm
rain 24hr
cm
rain mn
cm
humidity
%
barometer
mb
20260505140527 20 195 4.8 17.7 0.00 0.00 0.00 59 1014.7
20260505125027 18 188 6.4 17.7 0.00 0.00 0.00 64 1015.1
20260505124540 17 252 4.8 16.1 0.00 0.00 0.00 65 1015.0
20260505124027 17 293 6.4 17.7 0.00 0.00 0.00 65 1015.0
20260505123525 17 142 4.8 17.7 0.00 0.00 0.00 66 1014.9
20260505123042 17 259 4.8 24.1 0.00 0.00 0.00 66 1015.0
20260505122527 17 262 3.2 24.1 0.00 0.00 0.00 68 1015.0
20260505122027 17 286 8.0 24.1 0.00 0.00 0.00 68 1014.8
20260505121541 16 169 6.4 20.9 0.00 0.00 0.00 69 1014.9
20260505121028 16 221 8.0 24.1 0.00 0.00 0.00 69 1014.9
20260505120527 16 271 6.4 24.1 0.00 0.00 0.00 70 1014.8
20260505120100 16 220 9.7 24.1 0.00 0.00 0.00 71 1014.9
20260505115530 15 302 3.2 20.9 0.00 0.00 0.00 73 1014.9
20260505115026 15 205 4.8 17.7 0.00 0.00 0.00 74 1014.8
20260505114538 15 145 4.8 14.5 0.00 0.00 0.00 74 1014.6
20260505114026 15 0 4.8 16.1 0.00 0.00 0.00 75 1014.6
20260505113527 15 0 4.8 16.1 0.00 0.00 0.00 75 1014.3
20260505113045 14 154 4.8 16.1 0.00 0.00 0.00 76 1014.4
20260505112526 14 173 0.0 9.7 0.00 0.00 0.00 76 1014.4
20260505112027 14 346 3.2 9.7 0.00 0.00 0.00 76 1014.3
20260505111539 14 0 3.2 11.3 0.00 0.00 0.00 76 1014.3
20260505111027 14 183 3.2 11.3 0.00 0.00 0.00 76 1014.3
20260505110527 14 127 1.6 8.0 0.00 0.00 0.00 76 1014.2
20260505102027 15 225 0.0 12.9 0.00 0.00 0.00 73 1014.1
20260505101542 15 176 1.6 12.9 0.00 0.00 0.00 73 1014.0
20260505101027 15 202 0.0 6.4 0.00 0.00 0.00 73 1014.0
20260505100527 15 261 1.6 4.8 0.00 0.00 0.00 73 1013.9
20260505100041 15 261 0.0 11.3 0.00 0.00 0.00 73 1013.9
20260505095526 15 342 3.2 11.3 0.00 0.00 0.00 73 1013.8
20260505095026 15 216 0.0 6.4 0.00 0.00 0.00 73 1013.9
20260505094538 15 0 0.0 6.4 0.00 0.00 0.00 73 1013.9
20260505094026 15 138 0.0 4.8 0.00 0.00 0.00 73 1013.8
20260505093526 15 278 0.0 6.4 0.00 0.00 0.00 72 1013.7
20260505093041 15 246 0.0 8.0 0.00 0.00 0.00 72 1013.7
20260505092526 15 119 1.6 9.7 0.00 0.00 0.00 72 1013.8
20260505092026 15 231 1.6 9.7 0.00 0.00 0.00 72 1013.7
20260505091540 15 0 0.0 9.7 0.00 0.00 0.00 72 1013.7
20260505091025 15 0 0.0 8.0 0.00 0.00 0.00 72 1013.7
20260505090527 15 0 1.6 6.4 0.00 0.00 0.00 72 1013.7
20260505090046 15 209 0.0 6.4 0.00 0.00 0.00 71 1013.6
20260505085527 15 175 1.6 12.9 0.00 0.00 0.00 71 1013.6
20260505085030 15 250 1.6 12.9 0.00 0.00 0.00 71 1013.4
20260505084544 15 271 1.6 12.9 0.00 0.00 0.00 71 1013.5
20260505084029 15 174 0.0 11.3 0.00 0.00 0.00 71 1013.5
20260505083526 15 0 1.6 9.7 0.00 0.00 0.00 70 1013.6
20260505083038 16 78 0.0 9.7 0.00 0.00 0.00 70 1013.5
20260505082526 16 0 1.6 9.7 0.00 0.00 0.00 70 1013.6
20260505082026 16 209 3.2 9.7 0.00 0.00 0.00 70 1013.6
20260505081540 16 0 1.6 9.7 0.00 0.00 0.00 70 1013.6
20260505081027 16 0 0.0 11.3 0.00 0.00 0.00 70 1013.6
20260505080526 16 0 3.2 11.3 0.00 0.00 0.00 70 1013.7
20260505080039 16 267 1.6 9.7 0.00 0.00 0.00 70 1013.6
20260505075527 16 0 3.2 12.9 0.00 0.00 0.00 70 1013.7
20260505075027 16 0 4.8 12.9 0.00 0.00 0.00 70 1013.5
20260505074543 16 242 3.2 12.9 0.00 0.00 0.00 70 1013.5
20260505074027 16 227 4.8 12.9 0.00 0.00 0.00 70 1013.5
20260505073527 16 128 1.6 12.9 0.00 0.00 0.00 70 1013.5
20260505073059 16 0 3.2 12.9 0.00 0.00 0.00 70 1013.3
20260505072527 16 0 0.0 12.9 0.00 0.00 0.00 70 1013.3
20260505072027 16 0 1.6 12.9 0.00 0.00 0.00 70 1013.3
20260505071541 16 178 0.0 12.9 0.00 0.00 0.00 70 1013.3
20260505071026 16 157 3.2 12.9 0.00 0.00 0.00 70 1013.3
20260505070526 16 118 1.6 8.0 0.00 0.00 0.00 70 1013.3
20260505070039 16 0 1.6 8.0 0.00 0.00 0.00 69 1013.3
20260505065527 16 173 3.2 9.7 0.00 0.00 0.00 69 1013.4
20260505065025 16 150 1.6 9.7 0.00 0.00 0.00 69 1013.3
20260505064545 16 122 3.2 9.7 0.00 0.00 0.00 69 1013.3
20260505064027 16 0 1.6 9.7 0.00 0.00 0.00 69 1013.3
20260505063527 16 153 1.6 8.0 0.00 0.00 0.00 69 1013.2
20260505063039 16 146 3.2 11.3 0.00 0.00 0.00 68 1013.2
20260505062527 16 208 1.6 11.3 0.00 0.00 0.00 68 1013.3
20260505062026 16 143 3.2 11.3 0.00 0.00 0.00 68 1013.4
20260505061549 17 213 4.8 11.3 0.00 0.00 0.00 68 1013.3
20260505061026 17 200 1.6 9.7 0.00 0.00 0.00 68 1013.4
20260505060526 17 0 3.2 9.7 0.00 0.00 0.00 67 1013.4
20260505060044 17 201 1.6 14.5 0.00 0.00 0.00 67 1013.4
20260505055526 17 73 3.2 16.1 0.00 0.00 0.00 67 1013.3
20260505055027 17 159 3.2 16.1 0.00 0.00 0.00 66 1013.4
20260505054600 17 151 3.2 12.9 0.00 0.00 0.00 67 1013.2
20260505054026 17 94 3.2 14.5 0.00 0.00 0.00 66 1013.3
20260505053526 17 196 4.8 14.5 0.00 0.00 0.00 66 1013.3
20260505053059 17 254 4.8 11.3 0.00 0.00 0.00 66 1013.5
20260505052526 17 0 3.2 16.1 0.00 0.00 0.00 66 1013.2
20260505052027 17 219 3.2 16.1 0.00 0.00 0.00 66 1013.2
20260505051542 17 169 6.4 16.1 0.00 0.00 0.00 66 1013.3
20260505051030 17 215 4.8 16.1 0.00 0.00 0.00 66 1013.2
20260505050526 17 209 4.8 17.7 0.00 0.00 0.00 66 1013.3
20260505041537 17 254 4.8 12.9 0.00 0.00 0.00 62 1013.2
20260505041026 17 269 3.2 16.1 0.00 0.00 0.00 62 1013.1
20260505040526 17 262 6.4 16.1 0.00 0.00 0.00 61 1012.9
20260505040046 17 92 4.8 14.5 0.00 0.00 0.00 60 1013.1
20260505035525 17 161 3.2 14.5 0.00 0.00 0.00 59 1013.1
20260505035026 17 205 4.8 14.5 0.00 0.00 0.00 59 1013.0
20260505034538 17 194 3.2 14.5 0.00 0.00 0.00 58 1012.9
20260505034027 17 207 4.8 14.5 0.00 0.00 0.00 58 1013.0
20260505033527 17 83 0.0 11.3 0.00 0.00 0.00 57 1012.9
20260505033039 17 184 1.6 11.3 0.00 0.00 0.00 57 1013.0
20260505032527 16 211 0.0 11.3 0.00 0.00 0.00 57 1012.9
20260505032026 16 101 1.6 11.3 0.00 0.00 0.00 58 1012.9
20260505031548 16 134 0.0 11.3 0.00 0.00 0.00 60 1012.9
20260505031026 16 141 0.0 4.8 0.00 0.00 0.00 61 1012.8
20260505030526 16 76 0.0 4.8 0.00 0.00 0.00 61 1012.7
20260505030038 15 0 0.0 3.2 0.00 0.00 0.00 61 1012.8
20260505025526 15 0 0.0 3.2 0.00 0.00 0.00 62 1012.7
20260505025025 15 0 0.0 3.2 0.00 0.00 0.00 62 1012.8
20260505024544 15 0 0.0 1.6 0.00 0.00 0.00 63 1012.6
20260505024026 15 0 0.0 0.0 0.00 0.00 0.00 64 1012.6
20260505023528 15 0 0.0 1.6 0.00 0.00 0.00 64 1012.6
20260505023047 15 0 0.0 1.6 0.00 0.00 0.00 65 1012.6
20260505022526 15 0 0.0 1.6 0.00 0.00 0.00 66 1012.5
20260505022027 15 0 0.0 0.0 0.00 0.00 0.00 64 1012.6
20260505021539 15 0 0.0 3.2 0.00 0.00 0.00 64 1012.5
20260505021026 15 0 0.0 3.2 0.00 0.00 0.00 64 1012.4
20260505020526 15 0 0.0 1.6 0.00 0.00 0.00 64 1012.4
20260505020038 15 0 0.0 0.0 0.00 0.00 0.00 63 1012.3
20260505015527 15 0 0.0 0.0 0.00 0.00 0.00 63 1012.4
20260505015027 16 0 0.0 0.0 0.00 0.00 0.00 62 1012.4
20260505014538 16 0 0.0 0.0 0.00 0.00 0.00 61 1012.4
20260505014026 16 0 0.0 0.0 0.00 0.00 0.00 61 1012.3
20260505013526 16 0 0.0 0.0 0.00 0.00 0.00 61 1012.4
20260505013037 16 0 0.0 0.0 0.00 0.00 0.00 60 1012.4
20260505012526 16 0 0.0 0.0 0.00 0.00 0.00 60 1012.3
20260505012026 16 0 0.0 0.0 0.00 0.00 0.00 58 1012.2
20260505011544 16 0 0.0 0.0 0.00 0.00 0.00 58 1012.2
20260505011025 17 0 0.0 0.0 0.00 0.00 0.00 59 1012.1
20260505010526 17 0 0.0 0.0 0.00 0.00 0.00 58 1012.1
20260505010043 17 0 0.0 0.0 0.00 0.00 0.00 56 1012.0
20260505005526 17 0 0.0 0.0 0.00 0.00 0.00 56 1012.1
20260505005027 17 0 0.0 0.0 0.00 0.00 0.00 54 1011.8
20260505004548 17 0 0.0 0.0 0.00 0.00 0.00 56 1012.0
20260505004026 17 0 0.0 0.0 0.00 0.00 0.00 52 1011.9
20260505003526 17 0 0.0 0.0 0.00 0.00 0.00 51 1012.2
20260505003041 17 0 0.0 0.0 0.00 0.00 0.00 50 1012.1
20260505002526 18 0 0.0 0.0 0.00 0.00 0.00 51 1012.1
20260505002026 18 0 0.0 0.0 0.00 0.00 0.00 50 1012.0
20260505001539 18 0 0.0 0.0 0.00 0.00 0.00 49 1011.9
20260505001026 19 0 0.0 0.0 0.00 0.00 0.00 47 1012.1
20260505000526 19 0 0.0 0.0 0.00 0.00 0.00 46 1012.1
20260505000056 20 0 0.0 0.0 0.00 0.00 0.00 45 1011.9
20260504235526 20 0 0.0 0.0 0.00 0.00 0.00 43 1011.9
20260504235026 21 0 0.0 0.0 0.00 0.00 0.00 42 1011.8
20260504234541 21 0 0.0 1.6 0.00 0.00 0.00 39 1011.7
20260504234025 22 0 0.0 1.6 0.00 0.00 0.00 39 1011.6
20260504233527 22 0 0.0 3.2 0.00 0.00 0.00 37 1011.6
20260504233040 22 174 0.0 9.7 0.00 0.00 0.00 35 1011.5
20260504232526 23 0 0.0 9.7 0.00 0.00 0.00 34 1011.7
20260504232026 23 0 0.0 11.3 0.00 0.00 0.00 34 1011.7
20260504231541 23 118 3.2 14.5 0.00 0.00 0.00 33 1011.6
20260504231026 23 271 1.6 14.5 0.00 0.00 0.00 32 1011.7
20260504230526 23 293 6.4 14.5 0.00 0.00 0.00 32 1011.6
20260504230057 24 265 3.2 14.5 0.00 0.00 0.00 32 1011.7
20260504225526 24 289 4.8 16.1 0.00 0.00 0.00 31 1011.6
20260504225026 24 288 6.4 17.7 0.00 0.00 0.00 30 1011.8
20260504224538 24 287 6.4 20.9 0.00 0.00 0.00 32 1011.8
20260504224026 24 271 4.8 20.9 0.00 0.00 0.00 31 1011.7
20260504223526 24 251 4.8 14.5 0.00 0.00 0.00 31 1011.6
20260504223037 24 299 4.8 16.1 0.00 0.00 0.00 32 1011.6
20260504222525 24 251 4.8 16.1 0.00 0.00 0.00 32 1011.6
20260504222025 24 202 6.4 16.1 0.00 0.00 0.00 30 1011.4
20260504221556 25 0 4.8 16.1 0.00 0.00 0.00 32 1011.5
20260504221027 25 281 8.0 16.1 0.00 0.00 0.00 30 1011.4
20260504220526 24 236 1.6 12.9 0.00 0.00 0.00 32 1011.5
20260504220041 25 265 4.8 12.9 0.00 0.00 0.00 31 1011.5
20260504215526 25 272 1.6 12.9 0.00 0.00 0.00 31 1011.5
20260504215025 24 259 1.6 12.9 0.00 0.00 0.00 32 1011.5
20260504214537 24 0 1.6 11.3 0.00 0.00 0.00 31 1011.4
20260504214025 24 240 4.8 14.5 0.00 0.00 0.00 31 1011.4
20260504213526 24 289 6.4 14.5 0.00 0.00 0.00 31 1011.5
20260504213043 25 173 4.8 11.3 0.00 0.00 0.00 30 1011.5
20260504212527 25 282 3.2 14.5 0.00 0.00 0.00 29 1011.3
20260504212027 25 293 3.2 14.5 0.00 0.00 0.00 29 1011.4
20260504211543 25 214 3.2 14.5 0.00 0.00 0.00 29 1011.4
20260504211026 25 244 3.2 19.3 0.00 0.00 0.00 29 1011.5
20260504210526 25 298 6.4 19.3 0.00 0.00 0.00 30 1011.5
20260504210038 25 240 3.2 19.3 0.00 0.00 0.00 28 1011.5
20260504205526 25 163 3.2 19.3 0.00 0.00 0.00 29 1011.5
20260504205025 25 316 8.0 19.3 0.00 0.00 0.00 29 1011.4
20260504204542 25 267 6.4 16.1 0.00 0.00 0.00 31 1011.6
20260504204026 25 286 6.4 16.1 0.00 0.00 0.00 30 1011.5
20260504203526 25 179 6.4 16.1 0.00 0.00 0.00 30 1011.6
20260504203049 25 272 4.8 12.9 0.00 0.00 0.00 31 1011.7
20260504202526 25 238 4.8 12.9 0.00 0.00 0.00 30 1011.5
20260504202025 25 263 6.4 12.9 0.00 0.00 0.00 29 1011.7
20260504201538 25 254 3.2 12.9 0.00 0.00 0.00 31 1011.7
20260504201025 25 180 4.8 12.9 0.00 0.00 0.00 29 1011.8
20260504200526 25 275 3.2 14.5 0.00 0.00 0.00 32 1011.8
20260504200038 25 169 4.8 14.5 0.00 0.00 0.00 32 1011.8
20260504195525 25 311 4.8 14.5 0.00 0.00 0.00 30 1011.9
20260504195027 25 202 1.6 14.5 0.00 0.00 0.00 30 1011.9
20260504194539 25 271 4.8 14.5 0.00 0.00 0.00 32 1012.0
20260504194026 24 0 3.2 22.5 0.00 0.00 0.00 34 1012.0
20260504193526 24 275 6.4 22.5 0.00 0.00 0.00 31 1012.2
20260504193038 24 323 6.4 14.5 0.00 0.00 0.00 31 1012.5
20260504192526 23 248 4.8 14.5 0.00 0.00 0.00 31 1012.7
20260504192023 23 245 4.8 16.1 0.00 0.00 0.00 31 1012.6
20260504191544 23 275 6.4 17.7 0.00 0.00 0.00 34 1012.7
20260504191026 23 238 6.4 17.7 0.00 0.00 0.00 33 1012.8
20260504190526 23 277 9.7 17.7 0.00 0.00 0.00 31 1012.8
20260504190045 23 0 6.4 14.5 0.00 0.00 0.00 31 1012.9
20260504185525 23 134 6.4 17.7 0.00 0.00 0.00 33 1013.0
20260504185025 22 257 8.0 20.9 0.00 0.00 0.00 31 1012.9
20260504184543 22 300 9.7 20.9 0.00 0.00 0.00 29 1013.0
20260504184027 23 231 8.0 17.7 0.00 0.00 0.00 29 1013.1
20260504183525 23 228 8.0 19.3 0.00 0.00 0.00 29 1013.1
20260504183041 22 272 8.0 24.1 0.00 0.00 0.00 30 1013.2
20260504182525 23 257 8.0 24.1 0.00 0.00 0.00 29 1013.2
20260504182025 23 281 9.7 24.1 0.00 0.00 0.00 29 1013.4
20260504181539 23 198 4.8 17.7 0.00 0.00 0.00 31 1013.3
20260504181026 23 178 4.8 19.3 0.00 0.00 0.00 33 1013.4
20260504180526 23 144 4.8 19.3 0.00 0.00 0.00 30 1013.4
20260504180044 22 269 9.7 17.7 0.00 0.00 0.00 30 1013.5
20260504175525 22 110 4.8 14.5 0.00 0.00 0.00 30 1013.6
20260504175026 22 157 4.8 14.5 0.00 0.00 0.00 30 1013.6
20260504174544 22 262 3.2 14.5 0.00 0.00 0.00 30 1013.6
20260504174026 22 232 6.4 14.5 0.00 0.00 0.00 29 1013.7
20260504173525 22 287 4.8 19.3 0.00 0.00 0.00 32 1013.8
20260504173040 22 105 8.0 19.3 0.00 0.00 0.00 31 1013.7
20260504172528 22 269 3.2 17.7 0.00 0.00 0.00 31 1013.9
20260504172025 22 205 6.4 17.7 0.00 0.00 0.00 32 1013.9
20260504171542 22 56 8.0 16.1 0.00 0.00 0.00 30 1014.0
20260504171027 22 285 3.2 12.9 0.00 0.00 0.00 35 1014.0
20260504170527 22 259 3.2 19.3 0.00 0.00 0.00 31 1014.1
20260504151026 20 286 4.8 17.7 0.00 0.00 0.00 41 1015.2
20260504150526 20 182 3.2 17.7 0.00 0.00 0.00 43 1015.1